Reflectivity
14 14 -0 -20 -20 -19 4 13 12 12 0 -14 -20 -20 -20 -20 -20 -20 -20 -20 -20 -20 -20 -20 -20 -20 -20 -20 -20 -20 -20 -20 -20 -20 -20 -20 -20 -20 -20 -20 -20 -20 -20 -20 -20 -20 -20
13 12 13 -14 -20 -10 14 12 4 -11 -10 -3 -20 -20 -20 -20 -20 -20 -20 -20 -20 -20 -20 -20 -20 -20 -20 -20 -20 -20 -20 -20 -20 -20 -20 -20 -20 -20 -20 -20 -20 -20 -20 -20 -20 -20 -20
7 8 5 9 7 -20 -20 -20 -20 -20 -20 -20 -20 -20 -20 -20 -20 -20 -20 -20 -20 -20 -20 -20 -20 -20 -20 -20 -20 -20 -20 -20 -20 -20 -20 -20 -20 -20 -20 -20 -20 -20 -20 -20 -20 -20 -20
11 11 -5 -20 -20 -20 -20 -20 -20 -20 -20 -20 -20 -20 -20 -20 -20 -20 -20 -20 -20 -20 -20 -20 -20 -20 -20 -20 -20 -20 -20 -20 -20 -20 -20 -20 -20 -20 -20 -20 -20 -20 -20 -20 -20 -20 -20
13 12 10 -20 -20 -20 -20 -20 -20 -20 -20 -20 -20 -20 -20 -20 -20 -20 -20 -20 -20 -20 -20 -20 -20 -20 -20 -20 -20 -20 -20 -20 -20 -20 -20 -20 -20 -20 -20 -20 -20 -20 -20 -20 -20 -20 -20
15 13 13 -20 -20 -20 -20 -20 -20 -20 -20 -20 -20 -20 -20 -20 -20 -20 -20 -20 -20 -20 -20 -20 -20 -20 -20 -20 -20 -20 -20 -20 -20 -20 -20 -20 -20 -20 -20 -20 -20 -20 -20 -20 -20 -20 -20
13 11 5 4 -20 -20 -20 -20 -20 -20 -20 -20 -20 -20 -20 -20 -20 -20 -20 -20 -20 -20 -20 -20 -20 -20 -20 -20 -20 -20 -20 -20 -20 -20 -20 -20 -20 -20 -20 -20 -20 -20 -20 -20 -20 -20 -20
-6 11 8 -13 -14 -20 -20 -20 -20 -20 -20 -20 -20 -20 -20 -20 -20 -20 -20 -20 -20 -20 -20 -20 -20 -20 -20 -20 -20 -20 -20 -20 -20 -20 -20 -20 -20 -20 -20 -20 -20 -20 -20 -20 -20 -20 -20
3 11 -20 5 9 -20 -20 -20 -20 -20 -20 -20 -20 -20 -20 -20 -20 -20 -20 -20 -20 -20 -20 -20 -20 -20 -20 -20 -20 -20 -20 -20 -20 -20 -20 -20 -20 -20 -20 -20 -20 -20 -20 -20 -20 -20 -20
11 -20 -20 -20 10 -4 -20 -20 -20 -20 -20 -20 -20 -20 -20 -20 -20 -20 -20 -20 -20 -20 -20 -20 -20 -20 -20 -20 -20 -20 -20 -20 -20 -20 -20 -20 -20 -20 -20 -20 -20 -20 -20 -20 -20 -20 -20
-20 -20 -20 -4 10 9 -14 -20 -20 -20 -20 -20 -20 -20 -20 -20 -20 -20 -20 -20 -20 -20 -20 -20 -20 -20 -20 -20 -20 -20 -20 -20 -20 -20 -20 -20 -20 -20 -20 -20 -20 -20 -20 -20 -20 -20 -20
-20 -20 -20 -20 -6 -20 -20 -20 -20 -20 -20 -20 -20 -20 -20 -20 -20 -20 -20 -20 -20 -20 -20 -20 -20 -20 -20 -20 -20 -20 -20 -20 -20 -20 -20 -20 -20 -20 -20 -20 -20 -20 -20 -20 -20 -20 -20
-20 -20 -13 -1 -19 -20 -20 -20 -20 -20 -20 -20 -20 -20 -20 -20 -20 -20 -20 -20 -20 -20 -20 -20 -20 -20 -20 -20 -20 -20 -20 -20 -20 -20 -20 -20 -20 -20 -20 -20 -20 -20 -20 -20 -20 -20 -20
-1 8 11 13 -20 -19 -20 -20 -20 -20 -20 -20 -20 -20 -20 -20 -20 -20 -20 -20 -20 -20 -20 -20 -20 -20 -20 -20 -20 -20 -20 -20 -20 -20 -20 -20 -20 -20 -20 -20 -20 -20 -20 -20 -20 -20 -20
-20 -9 6 9 9 7 -12 -20 -20 -20 -20 -20 -20 -20 -20 -20 -20 -20 -20 -20 -20 -20 -20 -20 -20 -20 -20 -20 -20 -20 -20 -20 -20 -20 -20 -20 -20 -20 -20 -20 -20 -20 -20 -20 -20 -20 -20
6 7 7 9 8 6 -20 -20 -20 -20 -20 -20 -20 -20 -20 -20 -20 -20 -20 -20 -20 -20 -20 -20 -20 -20 -20 -20 -20 -20 -20 -20 -20 -20 -20 -20 -20 -20 -20 -20 -20 -20 -20 -20 -20 -20 -20
10 -19 -3 9 11 6 -20 -20 -20 -20 -20 -20 -20 -20 -20 -20 -20 -20 -20 -20 -20 -20 -20 -20 -20 -20 -20 -20 -20 -20 -20 -20 -20 -20 -20 -20 -20 -20 -20 -20 -20 -20 -20 -20 -16 -20 -20
-20 -20 -20 -19 -5 -20 -20 -20 -20 -20 -20 -20 -20 -20 -20 -20 -20 -20 -20 -20 -20 -20 -20 -20 -20 -20 -20 -20 -20 -20 -20 -20 -20 -20 -20 -20 -20 -20 -20 -20 -20 -20 -20 -3 4 -20 12
-20 -20 -20 -20 -20 -20 -20 -20 -20 -20 -20 -20 -20 -20 -20 -20 -20 -20 -20 -20 -20 -20 -20 -20 -20 -20 -20 -20 -20 -20 -20 -20 -20 -20 -20 -20 -20 -20 -20 -19 -15 -2 0 7 -17 -1 -1
6 -20 -20 -20 -20 -20 -20 -20 -20 -20 -20 -20 -20 -20 -20 -20 -20 -20 -20 -20 -20 -20 -20 -20 -20 -20 -20 -20 -20 -20 -20 -20 -20 -20 -20 -8 -20 -20 12 -2 18 25 -11 -9 1 20 2
7 12 9 -4 -14 -5 -20 -20 -20 -20 -20 -20 -20 -20 -20 -20 -20 -20 -20 -20 -20 -20 -20 -20 -20 -20 -20 -20 -20 -20 -20 -20 -19 -9 25 27 28 4 -4 11 14 -10 -20 -20 5 1 6
11 0 3 2 5 11 8 -9 -20 -20 -20 -20 -20 -20 -20 -20 -20 -20 -20 -20 -20 -20 -20 -20 -20 -20 -20 -20 -19 -20 -20 -20 -20 -14 19 24 22 26 25 0 12 -18 -20 -20 -20 -20 -9
19 12 11 2 9 8 9 13 10 1 3 -20 -20 -20 -20 -20 -20 -20 -20 -20 -20 -20 -20 -20 -20 -12 -7 -17 15 9 11 -7 -10 20 28 27 15 11 13 -11 -19 -20 -20 -20 -20 -20 -20
17 19 9 18 -1 5 -11 11 23 20 17 -20 -20 -18 -14 -15 -20 -20 -20 -20 -20 -19 -14 -20 -20 -5 -14 15 14 10 4 4 14 8 14 22 24 27 16 -3 12 -20 -20 -20 -20 -20 -20
17 18 15 4 8 -16 14 12 11 16 26 23 14 15 19 18 3 -10 -20 -20 -20 -20 -20 -19 -20 -17 -12 -0 8 17 -14 -18 -20 -20 -20 -9 13 21 20 13 9 -19 -20 -20 -20 -20 3
-2 -16 -2 -14 -20 -20 -18 -2 -17 -19 22 27 24 24 28 19 9 -20 2 -20 -17 -20 -20 -20 -20 -20 -19 9 10 20 -6 -18 -20 -20 -20 -20 -20 24 22 0 16 -18 -20 -20 -12 -9 -20
10 7 -7 -20 -19 -16 -20 -1 3 1 -19 12 18 7 34 33 21 -6 -5 -10 -14 -9 13 -20 -20 -18 -15 6 29 28 27 -19 17 -20 -20 -13 17 14 -1 21 15 -20 -20 4 21 -5 -17
11 12 12 0 -9 -20 -20 -15 -13 -5 4 8 1 -6 31 18 25 4 14 6 23 29 13 -1 11 7 -1 -3 3 -15 -6 -1 22 14 26 10 -13 -20 -11 8 6 -20 -20 -16 -18 2 -11
13 12 13 14 12 11 -17 6 12 13 15 14 14 4 11 26 19 12 27 -20 24 21 26 30 29 28 30 24 19 38 31 28 -10 7 -18 14 -20 -17 -10 -3 11 20 11 2 4 -20 -19
Wind_Speed
15 16 18 19 18 17 16 16 17 17 17 16 14 13 11 10 9 7 5 4 4 4 4 5 5 3 2 3 4 5 12 8 3 4 6 3 5 3 4 4 3 5 3 2 2 2 3
17 18 19 18 17 16 16 17 18 17 17 15 14 13 11 9 8 7 6 6 5 4 5 5 5 3 1 4 3 6 8 4 7 5 8 6 3 3 7 4 2 2 2 2 3 3 3
14 15 17 17 17 16 16 17 16 17 17 16 14 13 11 10 8 7 6 6 6 6 6 6 5 2 7 5 2 6 5 3 4 3 4 4 2 1 2 4 1 1 3 3 4 1 2
12 14 15 16 16 15 16 16 16 16 17 17 15 13 12 11 9 7 7 7 7 7 7 4 3 1 3 1 1 5 5 1 4 5 4 2 5 7 4 4 2 1 2 4 4 1 2
11 11 12 14 16 16 17 16 16 17 17 17 16 14 12 10 9 7 7 7 6 7 4 3 3 2 3 2 1 4 4 2 2 3 5 4 3 4 2 2 3 2 5 5 5 1 2
12 13 13 14 16 17 18 17 17 18 19 19 18 15 14 12 10 8 8 3 2 1 1 1 2 3 2 3 3 3 2 3 3 0 3 3 3 2 3 4 4 5 5 6 8 0 6
12 13 13 13 15 16 17 17 17 18 18 18 18 17 15 14 11 8 0 1 3 3 6 4 2 2 1 5 2 5 3 1 0 3 2 4 2 4 3 3 1 2 6 9 10 3 9
11 12 13 13 14 15 16 16 17 18 19 19 18 17 15 13 10 6 3 3 3 3 3 1 0 1 1 2 1 7 4 0 2 3 2 3 2 1 1 2 2 4 8 6 7 2 9
10 11 12 13 13 15 16 17 18 19 20 20 19 17 15 13 5 4 6 4 2 3 0 1 1 1 2 3 1 6 5 1 4 2 3 1 4 2 2 2 5 5 5 6 7 13 5
10 11 11 11 12 13 15 16 18 19 19 20 20 17 15 14 2 1 4 2 2 3 2 2 0 1 1 1 1 2 3 2 1 0 1 1 3 2 2 3 2 5 1 4 11 10 6
10 10 10 11 12 12 14 15 17 18 19 20 19 16 14 12 4 3 2 2 1 3 3 1 0 1 1 1 2 1 1 1 1 2 3 2 4 3 4 1 2 4 3 8 4 5 6
10 10 11 11 13 12 13 15 17 18 18 20 19 16 11 3 3 3 3 2 3 2 4 1 2 3 2 2 1 3 1 3 1 2 2 1 0 3 1 1 4 7 4 3 2 3 4
10 11 12 13 13 13 13 14 17 19 19 19 19 12 6 2 3 5 3 3 2 3 2 1 2 3 2 2 1 3 2 0 3 3 1 2 3 2 2 3 3 4 6 4 3 3 4
13 13 13 14 13 12 12 14 16 18 20 19 16 6 5 3 3 4 2 3 2 1 2 1 2 2 3 2 1 2 2 4 4 2 1 2 3 6 4 2 2 2 3 3 7 6 11
13 13 12 10 10 10 10 12 14 16 18 19 9 2 1 4 4 2 3 1 2 2 0 1 2 2 2 1 3 3 4 4 3 8 4 3 4 3 1 1 2 4 4 3 6 2 6
7 9 10 9 8 7 9 12 14 17 19 14 2 1 2 7 5 2 2 3 1 0 2 1 3 2 3 2 3 2 2 4 4 4 1 1 6 2 3 2 3 4 5 2 2 6 11
7 8 9 8 6 7 9 11 13 17 22 7 1 3 3 6 3 1 2 3 3 2 3 4 3 3 6 3 4 4 3 3 4 5 1 4 4 3 1 9 8 6 4 3 4 4 5
6 7 7 7 7 7 8 10 12 16 24 6 3 3 3 4 2 1 1 1 2 1 1 3 3 4 5 3 5 5 6 5 6 7 5 4 3 7 8 3 1 2 5 9 6 5 6
7 7 8 8 7 7 8 9 9 11 13 5 4 3 1 2 3 0 1 2 3 2 3 2 3 5 1 4 5 5 4 1 7 7 5 6 4 6 5 4 1 5 5 8 6 2 11
8 9 9 9 8 8 8 8 9 9 8 2 3 4 1 2 1 0 2 3 3 3 4 4 3 3 4 5 8 4 4 1 5 3 1 5 4 13 12 15 7 7 10 12 10 5 12
11 9 9 9 9 9 8 8 7 6 6 1 1 1 3 3 2 2 2 2 9 7 5 5 4 10 8 6 4 6 5 3 3 5 3 2 7 11 20 22 21 25 22 22 17 25 13
13 13 12 14 12 9 10 7 5 3 2 1 3 2 1 3 2 3 4 6 12 10 5 5 8 5 8 9 10 10 5 4 7 3 7 6 5 4 10 20 21 26 21 23 24 23 23
15 15 14 13 13 13 13 11 7 5 3 2 2 1 2 2 2 3 5 7 3 0 4 2 5 2 4 11 12 13 10 12 9 7 11 8 5 5 9 5 9 17 17 18 6 6 8
13 14 14 14 14 14 14 14 13 8 9 1 2 2 3 5 6 7 3 4 6 4 7 8 6 6 8 2 5 8 9 12 15 18 13 9 5 3 5 5 9 2 2 3 9 8 11
13 13 14 14 14 14 14 14 15 14 13 3 2 3 3 3 6 8 12 11 10 11 7 8 13 11 3 6 7 7 5 7 10 11 13 17 8 4 4 7 8 14 6 5 5 6 10
14 14 14 14 14 14 14 15 15 14 13 3 3 2 3 2 8 11 9 9 9 8 9 6 3 1 2 3 4 5 6 4 4 4 1 3 11 6 4 6 5 4 8 13 7 4 15
13 13 14 14 14 15 14 15 15 14 12 5 3 7 3 3 4 7 6 5 5 2 4 3 3 3 4 4 4 4 5 4 5 6 3 3 3 9 9 6 4 7 14 10 6 6 12
14 14 15 15 16 15 15 16 16 15 13 4 3 5 5 3 4 7 7 6 3 3 6 1 2 3 3 4 4 4 5 3 2 1 2 6 5 5 4 6 8 20 2 5 7 6 9
16 15 15 15 16 16 16 16 15 15 14 8 4 3 6 8 3 1 6 5 9 8 2 5 3 3 4 3 3 2 3 3 3 5 3 5 5 2 4 5 8 11 12 8 8 6 9
Wind_Direction
34 32 29 23 23 16 13 10 10 8 7 3 359 358 355 351 346 339 334 329 322 326 328 324 322 311 186 71 33 345 331 339 346 19 45 62 67 119 104 98 118 90 138 157 176 207 251
33 31 28 24 21 19 16 13 10 7 6 2 358 354 349 343 338 333 324 310 302 301 310 321 329 201 202 80 7 339 335 345 21 29 45 29 67 97 93 69 21 95 168 185 197 228 245
37 32 27 21 19 15 15 12 6 1 359 360 358 354 349 343 334 321 310 301 294 298 311 320 337 230 67 61 4 355 3 17 360 21 63 38 85 4 123 118 70 113 239 204 195 171 259
36 34 25 19 15 13 11 4 0 358 360 360 357 354 351 345 337 324 310 291 293 302 306 299 293 206 84 86 33 14 4 58 34 44 77 71 81 87 28 122 117 334 256 303 134 191 132
29 26 15 17 14 12 9 1 356 354 357 1 357 352 349 340 329 323 306 290 284 303 294 309 199 261 98 125 341 351 5 5 341 99 63 87 63 63 151 227 174 48 328 323 307 232 282
19 15 10 13 11 9 5 1 356 353 354 355 354 351 346 339 331 329 307 254 309 291 323 164 124 186 76 344 310 335 3 12 36 228 170 49 63 129 38 351 11 339 324 314 283 143 260
14 11 9 12 4 2 1 357 355 354 353 352 350 351 345 339 329 340 225 208 221 171 44 45 71 38 323 318 249 23 2 287 336 64 29 33 55 37 39 44 49 287 288 288 287 312 294
8 8 10 7 4 359 355 353 353 352 352 352 350 349 339 337 326 354 56 71 46 14 109 56 328 306 275 315 313 22 333 316 33 55 324 201 79 96 141 167 253 259 294 315 290 274 306
3 5 6 2 0 355 353 350 350 351 351 350 349 346 340 336 314 35 64 74 332 282 69 75 19 357 342 328 68 350 357 40 49 73 27 341 87 132 232 245 293 289 278 334 305 316 245
356 355 358 356 351 353 351 350 348 347 347 348 349 346 343 331 134 359 55 0 319 302 236 87 35 57 289 28 137 353 18 7 103 11 170 287 133 205 219 268 270 300 192 292 305 319 311
346 346 349 352 346 348 349 348 346 345 345 347 349 346 344 15 112 55 1 312 286 244 310 73 55 21 21 323 324 113 13 194 185 154 216 99 189 200 234 247 197 317 303 303 295 281 302
338 340 344 348 342 345 346 345 343 342 344 345 348 344 336 24 64 28 325 298 238 235 263 103 303 335 305 24 21 318 51 62 51 166 225 299 62 235 319 181 223 308 272 250 210 245 247
340 343 345 344 340 342 342 343 342 341 343 343 343 345 28 342 38 338 308 243 262 227 61 36 339 3 321 299 337 11 7 217 270 272 235 198 197 176 225 252 197 293 299 298 268 232 307
332 331 332 334 328 333 338 340 341 338 338 339 338 346 38 48 340 321 251 242 253 64 253 94 274 273 264 355 179 321 267 241 205 205 194 289 258 187 161 285 325 25 322 290 295 302 308
321 324 325 319 312 325 336 338 338 336 334 336 323 24 39 11 344 277 268 272 269 205 127 251 224 256 223 201 257 284 227 245 211 195 244 224 245 123 115 133 267 137 220 27 282 221 277
335 334 327 320 320 336 340 339 339 336 333 340 354 335 16 339 334 265 263 256 254 146 151 214 253 225 267 207 254 242 229 155 194 201 306 175 277 156 115 148 84 266 128 198 201 279 293
332 338 342 341 352 354 352 340 344 341 337 331 16 295 47 333 278 203 236 245 276 227 218 216 245 250 237 263 231 234 263 194 191 156 188 176 242 134 193 203 187 160 193 196 292 239 272
323 325 334 343 346 342 352 344 354 353 342 27 350 300 9 316 257 22 236 270 347 304 214 268 277 261 245 207 243 246 246 252 157 160 188 185 242 251 249 98 23 278 222 196 223 220 244
312 318 325 326 327 331 337 344 356 6 24 323 344 288 51 303 279 212 229 262 240 205 222 197 258 227 225 252 259 226 234 49 168 180 184 178 209 291 221 147 58 243 208 217 273 29 233
305 306 307 310 319 323 328 333 342 360 20 35 300 303 288 68 62 339 303 245 263 213 239 201 239 200 191 231 223 273 248 168 173 195 130 175 232 243 258 274 258 232 225 224 206 221 257
27 360 308 293 298 300 307 311 322 339 4 293 337 321 8 286 250 205 195 262 270 273 212 214 211 231 208 247 241 228 239 263 173 168 102 157 253 252 255 268 275 271 274 264 225 240 247
22 20 10 14 5 322 297 292 290 298 348 277 277 262 158 285 280 254 205 238 270 265 235 231 237 277 224 244 251 292 225 226 262 136 159 175 239 220 261 263 260 272 264 259 254 258 257
9 8 10 9 8 5 3 343 288 233 192 246 150 151 256 218 205 236 256 267 253 193 244 230 218 285 254 261 265 267 268 272 247 210 192 174 209 201 256 279 302 278 261 238 216 226 238
5 3 0 358 2 5 1 354 348 326 208 206 200 146 195 240 216 229 248 232 248 227 264 286 278 261 292 329 288 263 254 255 247 242 202 182 191 207 272 288 252 292 10 261 238 47 18
1 0 357 353 350 352 354 349 344 342 340 214 183 178 196 239 221 245 249 253 270 268 247 255 263 249 210 271 267 265 237 261 238 240 231 221 201 236 240 220 306 296 32 7 12 84 19
346 345 347 349 347 342 343 342 335 337 335 279 218 192 195 212 205 225 259 253 258 264 272 238 231 131 185 240 219 232 235 238 265 236 94 192 233 211 186 238 249 57 10 351 326 189 15
334 335 333 337 339 337 333 326 329 328 321 300 273 202 223 229 205 161 203 230 186 228 253 274 237 198 162 198 234 230 237 218 236 227 192 165 181 224 238 262 224 356 316 310 245 8 11
328 326 324 329 329 328 326 321 317 319 316 292 286 212 230 243 231 200 212 190 205 220 250 121 296 200 188 224 226 211 232 198 276 281 200 236 196 221 212 234 246 352 66 6 351 6 6
328 326 326 325 323 320 321 314 309 315 316 303 260 201 225 240 271 244 259 252 230 253 181 195 248 208 203 205 233 257 236 214 240 274 191 244 319 339 31 50 58 39 57 44 5 3 4